Temperature
22 22 22 21 21 21 20 20 20 20 19 19 19 19 19 19 19 19 19 19 19 18 18 18 18 18 18 18 18 18 18 18 18 18 18 18 18 18 18 18 18 18 18
22 22 21 21 21 21 21 20 20 20 19 19 19 19 19 19 18 18 19 19 19 18 18 18 18 18 18 18 18 18 18 18 18 18 18 18 18 18 18 18 18 18 18
22 22 21 21 21 21 21 20 20 20 20 19 19 19 19 19 18 18 19 19 18 18 18 18 18 18 18 18 18 18 18 18 18 18 18 17 18 18 18 18 18 18 18
22 22 21 21 21 21 21 21 20 20 19 19 19 19 19 19 19 19 19 18 18 18 18 18 18 18 18 18 18 18 18 18 18 18 18 18 18 17 17 18 18 17 18
22 21 21 21 21 21 21 20 20 20 20 19 19 19 19 19 19 19 19 19 18 18 18 18 18 18 18 18 18 18 18 18 18 18 18 18 17 17 17 17 17 17 17
22 22 21 21 21 21 21 20 20 20 20 19 19 19 19 19 19 19 19 19 19 18 18 18 18 18 18 18 18 18 18 18 18 18 18 18 17 17 17 17 17 17 17
22 22 21 21 21 21 20 20 20 20 20 19 19 19 19 19 19 19 19 19 19 19 19 18 18 18 18 18 18 18 18 18 18 18 18 18 17 17 17 17 17 17 17
22 22 21 21 21 21 20 20 20 20 20 19 19 19 19 19 19 19 19 19 19 19 19 18 18 18 18 18 18 18 18 18 18 18 18 18 18 17 17 17 17 16 16
22 22 22 21 21 21 20 20 20 20 20 19 19 19 19 19 19 19 19 19 19 19 18 18 18 18 18 18 18 18 18 18 18 18 18 17 17 17 17 17 17 17 16
22 22 21 21 21 21 20 20 20 20 20 19 19 19 19 19 19 19 19 19 19 18 18 18 18 18 18 18 18 18 18 18 18 18 17 17 17 17 17 17 17 17 17
22 22 21 21 21 21 20 20 20 20 19 19 19 19 19 18 18 18 18 18 18 18 18 18 18 18 18 18 18 18 18 18 18 17 17 17 17 17 17 17 17 17 16
22 22 21 21 21 21 20 20 20 19 19 19 19 19 19 18 18 18 18 18 18 18 18 18 18 18 18 18 18 18 18 18 17 17 17 17 17 17 17 17 17 17 16
21 21 21 21 20 20 20 20 20 20 19 19 19 19 18 18 18 18 18 18 18 18 18 18 17 17 17 17 17 17 17 17 17 17 17 17 17 17 17 17 17 17 16
21 21 21 21 20 20 20 20 20 19 19 19 19 18 18 18 18 18 17 17 17 17 17 17 17 17 17 17 17 17 17 17 17 17 17 17 17 17 17 17 17 16 16
21 21 20 20 20 20 19 19 19 19 19 19 18 18 18 18 17 17 17 17 17 17 17 17 17 17 17 17 17 17 17 17 17 17 17 17 17 16 16 16 16 16 16
20 20 20 20 20 20 19 19 19 19 19 18 18 18 18 17 17 17 17 17 17 17 17 17 17 17 17 17 17 17 17 17 17 17 16 16 16 16 16 16 16 16 16
20 20 20 20 20 19 19 19 19 19 18 18 18 18 17 17 17 17 17 17 17 17 17 17 16 16 16 16 16 16 16 16 16 16 16 16 16 16 16 16 16 15 15
19 20 20 20 19 19 19 19 19 18 18 18 18 17 17 17 17 17 17 16 16 16 16 16 16 16 16 16 16 16 16 16 16 16 16 15 15 15 15 15 15 15 15
19 19 19 19 19 19 19 18 18 18 18 17 17 17 17 17 17 16 16 16 16 16 16 16 16 16 16 16 15 15 15 15 15 15 15 15 15 15 15 15 15 15 14
19 19 19 19 18 18 18 18 18 18 17 17 17 17 17 16 16 16 16 16 16 16 16 16 16 16 15 15 15 15 15 15 15 15 15 15 15 14 14 14 14 14 14
18 19 18 18 18 18 18 18 17 17 17 17 17 16 16 16 16 16 16 15 15 15 15 15 15 15 15 15 15 15 15 15 15 14 14 14 14 14 14 14 14 14 14
18 18 18 17 17 17 17 17 17 17 17 16 16 16 16 16 15 15 15 15 15 15 15 15 15 15 15 14 14 14 14 14 14 14 14 14 14 14 14 14 14 13 13
17 17 17 17 16 16 16 16 16 16 16 16 16 16 15 15 15 15 15 15 15 15 15 14 14 14 14 14 14 14 14 14 14 13 13 13 13 13 13 13 13 13 13
16 16 16 16 16 16 16 15 15 15 15 15 15 15 15 15 15 15 14 14 14 14 14 14 14 14 14 14 14 14 14 13 13 13 13 13 13 13 13 13 13 13 12
16 16 16 16 15 15 15 15 15 15 15 15 15 14 14 14 14 14 14 14 14 14 14 14 14 14 14 14 14 13 13 13 13 13 13 12 12 12 12 12 12 12 12
15 15 15 15 15 15 15 15 15 14 14 14 14 14 14 14 14 14 14 13 13 13 13 13 13 13 13 13 13 13 13 13 13 12 12 12 12 12 12 11 11 11 11
Wind_Speed
11 12 13 12 11 9 9 8 7 6 5 4 3 2 2 2 2 3 4 5 5 5 4 2 2 1 2 2 2 1 1 1 1 2 2 3 1 1 2 2 2 3 6
10 12 12 12 11 11 10 8 8 7 6 5 4 3 3 2 2 2 3 6 6 6 5 3 2 2 2 1 1 1 1 1 1 2 1 2 3 2 1 1 2 2 3
14 14 13 11 11 11 11 10 9 7 7 6 3 2 2 1 1 1 2 4 6 6 5 4 3 2 2 2 2 2 2 2 1 2 3 2 2 2 2 1 1 1 1
11 12 12 11 11 11 10 9 8 8 7 6 6 6 4 4 4 3 3 3 4 5 6 5 4 4 3 3 3 2 2 3 2 1 2 3 3 2 1 3 2 1 1
11 12 12 12 11 10 9 8 7 7 7 7 7 7 5 4 3 2 3 3 3 4 5 5 4 4 3 4 3 3 2 3 3 2 2 1 1 2 2 2 2 2 2
10 10 10 9 8 8 8 8 7 7 7 7 7 8 7 6 4 4 4 3 3 3 4 5 5 4 4 4 4 4 4 3 3 3 2 2 2 3 3 3 3 2 2
9 9 9 10 10 10 9 8 8 7 7 7 7 8 8 7 7 6 5 4 3 4 5 5 5 5 5 5 5 4 4 4 4 4 3 3 3 3 3 3 2 2 2
9 10 11 11 10 10 9 8 9 8 7 7 7 6 6 5 5 5 5 5 5 5 4 5 5 6 6 6 5 4 4 4 4 4 3 3 3 3 4 4 3 1 2
9 9 10 10 10 10 10 10 9 8 7 7 6 6 5 5 5 5 4 4 4 4 4 5 5 5 5 5 4 4 4 4 4 4 4 3 3 3 4 4 4 4 3
7 7 8 8 9 9 9 9 8 8 7 6 6 6 5 5 5 4 5 5 5 4 4 4 5 5 5 4 4 4 4 4 4 4 3 4 3 3 3 3 3 4 4
6 7 7 8 8 8 8 8 8 7 6 6 6 5 4 5 4 5 6 6 5 5 5 5 5 4 4 4 4 5 4 5 5 4 4 5 4 3 3 3 3 3 3
5 5 6 5 5 7 8 8 8 8 7 7 6 6 5 4 5 6 6 5 6 5 6 5 5 5 5 5 5 6 5 5 5 5 4 5 4 4 3 3 4 4 4
6 5 4 4 4 6 8 8 8 8 7 6 6 5 5 5 5 6 5 5 5 6 5 5 5 5 5 5 5 6 5 5 6 5 5 5 4 4 4 4 4 4 3
6 6 5 5 5 5 6 7 7 7 6 6 5 6 6 6 5 5 5 4 5 5 5 5 5 5 5 5 5 5 4 4 5 4 5 5 5 6 5 5 5 4 3
4 5 5 5 5 5 5 6 6 5 6 6 5 5 5 4 3 3 3 4 4 5 4 4 4 4 4 4 4 5 5 4 3 4 4 4 5 6 5 4 4 4 3
4 4 4 4 5 5 5 5 5 5 5 5 5 4 3 3 3 4 3 3 3 4 3 3 4 4 4 4 4 4 4 4 4 4 4 4 4 5 6 6 6 6 5
4 3 4 4 5 5 5 6 5 4 4 4 4 3 3 3 3 3 3 3 4 3 3 3 3 4 4 4 4 4 3 3 4 4 4 3 3 4 4 4 4 5 5
3 2 3 3 3 3 4 4 4 4 3 3 2 2 3 3 3 3 3 4 3 3 3 3 3 3 4 4 4 3 2 2 3 3 4 4 3 2 2 2 2 3 4
3 3 3 3 2 2 3 4 3 4 3 3 3 3 3 3 3 4 4 3 3 2 3 3 3 3 4 3 3 2 2 2 3 3 3 3 3 3 2 3 2 2 3
1 1 2 3 3 1 2 4 3 3 3 3 3 3 2 3 4 4 4 3 2 3 2 2 3 3 3 3 3 3 2 2 3 3 2 3 3 3 3 3 3 3 3
2 3 3 2 1 2 3 3 2 3 3 2 2 2 2 2 2 2 2 2 2 1 1 2 2 2 3 2 2 4 3 3 2 2 2 2 2 3 3 3 4 5 3
4 4 4 4 3 2 3 2 1 2 1 1 1 1 1 2 1 1 1 1 2 2 2 2 2 2 2 2 2 3 3 3 3 2 2 2 2 2 3 3 3 3 2
4 3 4 4 4 3 3 2 1 1 2 2 2 1 1 1 2 2 2 1 1 2 2 2 2 2 2 1 1 2 2 2 2 2 2 2 1 1 1 1 1 1 1
3 3 4 4 3 2 2 1 0 0 1 2 2 2 1 1 1 1 2 2 2 2 1 2 2 2 1 1 1 1 1 1 1 0 0 1 1 1 1 1 1 0 1
2 2 2 2 1 1 2 2 2 2 1 1 1 1 2 2 1 1 1 2 3 4 4 3 3 2 2 3 3 2 1 1 2 1 1 1 1 2 2 2 1 1 1
1 1 1 1 1 1 2 2 2 1 1 1 0 1 2 2 2 1 1 2 1 2 3 3 3 2 3 2 1 1 2 1 2 3 2 1 1 1 0 0 1 1 0
Wind_Direction
168 164 164 163 159 159 158 162 164 171 162 160 167 167 185 191 187 191 190 189 191 183 172 173 171 159 164 189 180 163 165 226 125 60 355 340 321 274 236 197 185 206 213
164 166 166 166 168 170 171 171 174 177 177 181 180 174 169 183 198 209 198 197 194 192 188 176 185 183 172 189 188 152 168 245 151 135 92 344 342 341 293 205 186 206 209
172 172 172 173 172 176 179 180 181 180 182 178 161 152 125 105 175 208 214 212 203 201 196 184 188 194 183 198 211 195 190 224 251 178 159 169 235 303 322 303 260 192 205
173 172 171 172 176 183 183 179 179 180 183 175 169 168 175 191 206 201 205 218 212 208 204 193 193 196 194 203 223 214 200 186 220 257 213 191 175 176 294 320 315 273 229
173 175 178 181 180 178 176 176 175 183 186 183 181 180 192 202 203 196 201 218 227 219 212 207 205 203 202 208 214 206 207 196 195 206 210 205 180 164 173 260 298 316 285
178 178 176 172 175 175 178 176 177 193 194 190 189 189 194 196 197 206 211 221 228 230 226 218 213 213 211 212 212 210 211 215 208 206 198 187 183 193 179 211 245 269 283
172 165 168 176 176 176 183 180 182 194 195 195 199 201 201 199 203 208 210 210 221 228 231 228 216 215 219 217 212 213 222 218 215 214 216 210 209 189 175 183 226 260 280
168 166 178 184 182 180 182 179 186 195 194 195 206 208 206 208 215 215 213 215 223 227 226 227 222 220 220 224 215 215 218 218 221 226 217 215 224 193 181 181 183 240 291
178 175 179 180 181 182 184 184 187 195 197 196 200 207 206 209 217 218 216 221 227 229 227 228 226 228 223 220 210 218 223 217 220 224 220 222 230 211 202 188 178 181 232
172 177 174 176 184 185 185 181 182 191 195 197 201 208 212 215 217 216 222 225 228 229 226 229 229 229 227 226 216 224 223 216 227 222 218 229 232 225 212 198 198 189 195
169 175 173 184 184 181 179 182 184 185 191 195 198 203 209 212 217 225 230 230 232 228 229 227 228 228 226 229 226 229 224 224 236 233 221 232 233 231 225 209 203 203 190
144 160 167 172 185 181 181 184 185 186 194 195 194 201 207 212 218 229 235 232 233 234 232 228 225 227 230 226 225 232 230 228 236 237 230 236 235 232 228 215 215 219 207
130 129 137 164 188 195 186 184 184 188 191 188 192 203 211 215 224 236 240 237 237 240 236 225 227 233 235 230 228 228 228 230 236 232 227 234 223 230 227 215 217 223 223
147 142 152 174 189 191 188 183 186 187 183 181 190 203 216 222 230 237 239 239 238 239 239 233 230 225 230 233 230 225 222 228 239 234 229 229 220 227 226 224 218 217 220
148 157 172 185 186 181 184 184 183 181 180 178 188 204 213 216 222 232 240 242 240 241 237 233 238 232 230 235 226 222 222 220 234 242 239 232 218 221 222 223 214 208 211
171 181 191 188 187 182 187 187 187 185 175 177 193 203 204 211 221 231 238 240 245 246 239 238 240 242 248 248 229 218 221 220 220 231 243 244 242 233 229 223 209 195 197
180 181 194 193 191 192 186 180 185 174 169 180 192 192 197 211 227 232 238 241 243 238 243 247 239 242 244 240 231 220 212 220 222 223 228 246 256 238 236 226 210 212 213
172 187 189 188 188 186 171 165 157 150 166 180 202 210 208 217 225 230 240 243 236 233 235 245 242 243 256 245 228 218 210 228 233 222 214 215 236 239 207 199 203 229 232
167 185 173 156 148 158 169 156 158 161 164 188 215 222 213 218 217 224 236 236 233 235 236 241 239 239 258 252 221 202 203 234 252 246 228 213 215 224 183 170 194 255 276
115 140 131 126 127 171 161 150 171 175 184 209 222 222 208 218 219 223 227 225 218 228 232 250 250 239 245 251 221 182 181 223 252 260 250 222 205 202 175 175 189 232 262
88 89 81 88 122 157 144 151 176 210 216 205 199 198 183 218 221 220 223 224 219 215 222 245 269 263 257 251 212 181 182 206 227 239 256 257 224 212 213 205 204 225 239
72 77 72 58 50 67 100 119 200 230 173 141 173 215 188 226 242 202 213 216 198 195 220 235 276 280 268 236 228 194 185 177 181 216 242 258 258 250 243 233 224 218 217
56 68 77 63 51 51 72 82 295 236 153 156 189 213 198 229 224 199 198 212 199 193 214 218 248 276 284 272 263 190 186 174 171 203 241 267 275 287 275 281 247 201 166
56 58 73 64 41 34 46 55 14 332 155 174 183 166 169 207 197 202 199 187 200 199 204 228 241 256 265 265 274 255 221 195 151 144 302 307 342 33 36 23 29 77 168
28 47 78 74 37 28 25 16 34 68 89 149 166 158 180 195 188 190 218 213 221 204 194 214 210 201 232 247 218 196 210 204 192 143 92 64 50 37 23 23 12 21 70
53 7 18 33 2 12 15 13 21 58 89 95 154 182 182 188 191 188 321 341 266 234 202 193 179 200 202 215 216 231 222 205 142 115 116 132 127 149 167 2 346 352 354
Height
1520 1522 1524 1526 1527 1529 1530 1532 1533 1535 1536 1537 1538 1540 1541 1542 1542 1543 1544 1544 1545 1545 1545 1546 1546 1547 1547 1547 1548 1548 1547 1547 1548 1548 1547 1547 1547 1547 1547 1547 1546 1546 1546
1519 1521 1523 1524 1526 1527 1529 1531 1532 1534 1535 1536 1538 1539 1540 1541 1542 1542 1543 1543 1543 1544 1544 1545 1545 1546 1546 1546 1546 1546 1546 1546 1546 1546 1546 1546 1546 1545 1545 1545 1545 1545 1545
1516 1518 1520 1522 1524 1526 1527 1529 1531 1533 1534 1536 1537 1539 1540 1540 1541 1541 1541 1542 1542 1542 1543 1543 1543 1544 1544 1544 1545 1545 1545 1545 1545 1545 1545 1545 1543 1544 1544 1543 1543 1543 1543
1515 1517 1518 1520 1522 1524 1526 1528 1529 1531 1533 1535 1536 1536 1537 1537 1538 1539 1540 1541 1541 1541 1542 1542 1542 1542 1542 1542 1543 1543 1543 1543 1543 1543 1543 1543 1543 1543 1542 1542 1542 1542 1542
1513 1514 1517 1519 1521 1523 1525 1527 1528 1530 1531 1533 1534 1535 1536 1537 1538 1539 1539 1539 1539 1540 1540 1540 1540 1540 1540 1540 1541 1541 1541 1541 1541 1541 1541 1541 1541 1541 1541 1540 1540 1540 1540
1510 1513 1516 1518 1520 1522 1524 1526 1527 1528 1530 1531 1532 1533 1534 1535 1536 1536 1537 1537 1538 1538 1538 1538 1538 1538 1538 1538 1539 1538 1538 1539 1539 1539 1539 1539 1539 1538 1539 1538 1538 1538 1537
1508 1510 1514 1516 1518 1520 1522 1524 1525 1526 1528 1529 1530 1531 1532 1533 1533 1534 1534 1535 1535 1535 1536 1536 1536 1536 1536 1536 1536 1536 1536 1536 1536 1536 1536 1536 1536 1537 1537 1536 1536 1535 1535
1506 1508 1511 1513 1516 1518 1519 1521 1523 1524 1525 1526 1528 1529 1530 1531 1531 1532 1532 1532 1532 1533 1533 1533 1533 1533 1534 1534 1534 1533 1533 1534 1534 1534 1533 1534 1534 1534 1534 1534 1534 1533 1532
1505 1506 1509 1511 1514 1515 1517 1518 1520 1521 1523 1524 1525 1526 1527 1527 1528 1529 1529 1530 1530 1530 1531 1531 1531 1531 1531 1531 1531 1531 1531 1531 1531 1531 1531 1531 1531 1532 1531 1531 1531 1531 1529
1504 1507 1508 1510 1512 1513 1515 1516 1517 1519 1520 1521 1522 1523 1524 1524 1525 1526 1526 1526 1527 1527 1528 1528 1528 1528 1528 1528 1528 1528 1528 1528 1528 1528 1528 1528 1528 1528 1528 1528 1528 1528 1527
1503 1505 1507 1508 1510 1511 1512 1513 1514 1516 1517 1518 1519 1520 1520 1521 1522 1522 1522 1523 1523 1524 1524 1524 1525 1525 1525 1525 1525 1525 1525 1525 1524 1524 1525 1524 1525 1525 1525 1525 1524 1524 1524
1503 1504 1505 1507 1509 1509 1510 1510 1511 1513 1514 1515 1516 1516 1517 1518 1518 1518 1518 1519 1519 1520 1520 1521 1521 1521 1521 1522 1522 1522 1522 1521 1521 1521 1521 1521 1521 1521 1521 1521 1521 1521 1520
1501 1502 1504 1505 1507 1507 1507 1508 1508 1509 1511 1512 1512 1513 1513 1514 1514 1514 1514 1515 1515 1515 1516 1516 1517 1517 1517 1518 1518 1518 1518 1518 1517 1517 1517 1517 1517 1516 1517 1517 1517 1517 1517
1498 1499 1501 1501 1503 1504 1505 1505 1506 1507 1508 1509 1509 1509 1510 1510 1511 1510 1510 1510 1511 1511 1511 1512 1512 1512 1513 1513 1514 1514 1514 1514 1514 1513 1513 1513 1513 1513 1513 1513 1513 1513 1513
1496 1497 1498 1499 1501 1501 1502 1503 1503 1504 1505 1505 1506 1506 1507 1507 1507 1507 1506 1507 1507 1507 1507 1508 1508 1508 1508 1509 1509 1509 1509 1509 1509 1509 1509 1509 1509 1509 1509 1509 1509 1509 1509
1494 1495 1496 1497 1498 1498 1499 1499 1500 1501 1502 1502 1502 1503 1503 1503 1503 1503 1503 1503 1503 1503 1503 1503 1504 1504 1505 1505 1505 1505 1505 1505 1505 1505 1505 1505 1505 1506 1506 1505 1505 1506 1506
1493 1494 1494 1494 1495 1496 1496 1495 1496 1498 1499 1499 1500 1500 1500 1500 1499 1499 1499 1499 1499 1499 1499 1500 1500 1500 1501 1501 1501 1501 1501 1501 1501 1501 1501 1501 1502 1502 1502 1502 1502 1502 1502
1493 1493 1493 1493 1494 1493 1493 1494 1494 1495 1496 1496 1497 1497 1497 1497 1496 1496 1496 1496 1496 1496 1496 1496 1497 1497 1497 1497 1498 1498 1498 1498 1497 1497 1497 1498 1498 1498 1498 1498 1497 1498 1498
1491 1492 1492 1492 1492 1492 1492 1492 1493 1492 1493 1492 1493 1494 1493 1493 1493 1493 1493 1493 1493 1493 1493 1493 1494 1494 1493 1494 1494 1494 1494 1494 1494 1494 1494 1494 1495 1495 1495 1495 1494 1494 1494
1491 1491 1491 1490 1490 1490 1490 1490 1490 1489 1489 1490 1490 1491 1490 1490 1490 1490 1490 1490 1490 1490 1490 1490 1491 1490 1490 1490 1490 1490 1490 1490 1490 1490 1490 1491 1491 1492 1492 1492 1491 1491 1491
1489 1489 1488 1488 1487 1487 1488 1487 1487 1486 1486 1487 1487 1488 1488 1487 1487 1487 1487 1488 1488 1488 1488 1488 1488 1487 1487 1487 1487 1487 1486 1486 1486 1487 1487 1487 1488 1488 1489 1489 1489 1488 1488
1487 1487 1486 1485 1485 1485 1485 1485 1484 1484 1484 1484 1485 1484 1484 1485 1485 1485 1485 1485 1485 1485 1484 1485 1484 1484 1484 1484 1483 1483 1483 1483 1483 1483 1483 1484 1485 1485 1486 1486 1486 1486 1485
1486 1486 1485 1484 1484 1484 1484 1483 1483 1483 1483 1483 1483 1482 1482 1483 1483 1483 1483 1483 1483 1482 1482 1482 1481 1481 1481 1481 1481 1480 1480 1480 1480 1480 1481 1482 1482 1483 1483 1483 1483 1483 1483
1485 1485 1484 1484 1483 1483 1483 1482 1482 1482 1482 1481 1481 1481 1481 1481 1481 1481 1481 1481 1480 1480 1479 1479 1479 1478 1479 1478 1478 1478 1477 1477 1477 1478 1479 1480 1480 1480 1480 1480 1480 1480 1480
1485 1484 1483 1483 1482 1482 1481 1481 1481 1480 1480 1480 1479 1479 1479 1480 1479 1479 1479 1478 1478 1478 1477 1477 1476 1476 1476 1476 1476 1475 1475 1475 1475 1476 1476 1477 1477 1477 1477 1477 1477 1477 1477
1484 1483 1482 1482 1481 1481 1480 1480 1479 1479 1478 1478 1478 1478 1478 1478 1478 1477 1477 1477 1477 1476 1476 1475 1475 1474 1475 1474 1474 1474 1474 1474 1474 1474 1474 1474 1475 1475 1475 1475 1475 1475 1475